Location: Caltech
(34.1382°N, 118.1253°W)
Time: 00:55:25
(UTC-07:00)

Iridium 59 - Visible Passes

Search period start: 24 May 2017 00:00
Search period end: 03 June 2017 00:00
Orbit: 776 x 779 km, 86.4° (Epoch: 23 May)

Date Brightness Start Highest point End Pass type
(mag) Time Alt. Az. Time Alt. Az. Time Alt. Az.
24 May 6.5 03:59:42 10° SSE 04:04:25 36° E 04:09:09 10° NNE visible
25 May 7.4 03:27:34 10° SE 03:31:08 19° E 03:34:43 10° NE visible
25 May 5.6 05:06:38 10° SSW 05:11:29 39° W 05:16:21 10° NNW visible
26 May 5.0 04:32:42 10° S 04:37:54 77° W 04:43:08 10° N visible
27 May 5.7 03:59:22 10° SSE 04:04:26 54° E 04:09:31 10° NNE visible
28 May 6.8 03:26:43 10° SE 03:31:06 28° E 03:35:28 10° NNE visible
28 May 6.1 05:07:21 10° SW 05:11:41 26° W 05:16:02 10° NNW visible
29 May 7.6 02:55:06 10° ESE 02:57:51 15° E 03:00:36 10° NE visible
29 May 5.3 04:33:35 13° SSW 04:38:02 51° W 04:43:07 10° N visible
30 May 5.0 04:00:31 18° S 04:04:30 82° E 04:09:44 10° N visible
31 May 6.1 03:27:26 17° SSE 03:31:04 41° E 03:35:57 10° NNE visible
31 May 6.6 05:08:27 10° WSW 05:11:56 18° W 05:15:26 10° NW visible
01 Jun 7.1 02:54:20 12° SE 02:57:47 22° E 03:01:40 10° NE visible
01 Jun 5.8 04:34:49 17° SW 04:38:12 34° W 04:42:56 10° NNW visible
02 Jun 7.7 02:23:20 10° E 02:24:35 11° ENE 02:25:50 10° ENE visible
02 Jun 5.0 04:01:42 26° SSW 04:04:36 67° W 04:09:48 10° N visible
